Regional Weather Roundup
Issued by NWS

Home | Current Version | Previous Version | Graphics & Text | Print | Product List | Glossary On
Versions: 1 2 3 4 5 6 7 8 9 10 11 12 13 14 15 16 17 18 19 20 21 22 23 24 25 26 27 28 29 30 31 32 33 34 35 36 37 38 39 40 41 42 43 44 45 46 47 48 49 50
000
ASUS43 KMPX 071410
RWRMN
WEATHER ROUNDUP FOR MINNESOTA
NATIONAL WEATHER SERVICE TWIN CITIES/CHANHASSEN MN
800 AM CST SUN FEB 07 2016


NOTE: "FAIR" INDICATES FEW OR NO CLOUDS BELOW 12,000 FEET WITH NO
SIGNIFICANT WEATHER AND/OR OBSTRUCTIONS TO VISIBILITY. N/A MEANS
CURRENT SKY AND/OR WEATHER CONDITIONS ARE NOT AVAILABLE.

MNZ060>063-068>070-071500-
   Twin Cities Metro

CITY           SKY/WX    TMP DP  RH WIND       PRES   REMARKS
TWIN CITIES    MOCLDY    37  27  67 W17       29.63S
ST PAUL        PTCLDY    37  28  70 W13G22    29.63S
CRYSTAL        PTCLDY    38  28  67 W14G23    29.61S
BLAINE         MOCLDY    39  30  70 W21G31    29.60F
LAKEVILLE      CLEAR     36  27  69 W20G28    29.64S
EDEN PRAIRIE   MOCLDY    38  27  64 W12G21    29.63S
SOUTH ST PAUL  CLEAR     37  28  70 W12G20    29.62S
LAKE ELMO      CLOUDY    37  32  81 W14G22    29.62S
$$
MNZ001>005-007-008-013>017-022>024-027-028-071500-
   Northwest Minnesota

CITY           SKY/WX    TMP DP  RH WIND       PRES   REMARKS
BEMIDJI        FLURRIES  32  31  95 W17G23    29.45S WCI  21
HALLOCK        CLOUDY    30  27  86 NW18G24   29.51R WCI  18
ROSEAU         LGT SNOW  28  25  86 W14G21    29.43R WCI  17
WARROAD        LGT SNOW  28  25  86 W12G20    29.42R WCI  18
THIEF RVR FALL CLOUDY    34  28  80 W15       29.49R WCI  24
CROOKSTON      FLURRIES  32  32 100 NW20      29.53R WCI  20
FOSSTON        LGT SNOW  30  30 100 W16G24    29.50S WCI  19
DETROIT LAKES  CLOUDY    34  30  86 W20G29    29.56S WCI  22
MOORHEAD       CLOUDY    36  27  69 W22G28    29.61F
PARK RAPIDS    LGT SNOW  33  32  96 W21       29.50S VSB 3/4 WCI  21
MAHNOMEN       CLOUDY    32  29  90 W17       29.53R WCI  21
$$
MNZ006-009>011-018-025>026-071500-
   North Central Minnesota

CITY           SKY/WX    TMP DP  RH WIND       PRES   REMARKS
BAUDETTE       CLOUDY    31  26  82 W12       29.38R WCI  22
FLAG ISLAND    LGT SNOW  28  27  93 NW13      29.38R WCI  18
INTL FALLS     CLOUDY    33  32  96 SW5       29.37S WCI  29
WASKISH        CLOUDY    34  30  86 W16G22    29.41R WCI  23
LONGVILLE      FLURRIES  34  32  93 W8G16       N/A  WCI  27
GRAND RAPIDS   CLOUDY    34  30  86 W8        29.43S WCI  27
CRANE LAKE     CLOUDY    32  30  93 S2        29.41S
ORR            MIX PCPN  32  30  93 CALM      29.36F
COOK           LGT SNOW  32  32 100 CALM      29.39F
WALKER         LGT SNOW  32  31  95 W16       29.46S WCI  21
$$
MNZ012-019>021-037-071500-
   Northeast Minnesota

CITY           SKY/WX    TMP DP  RH WIND       PRES   REMARKS
DULUTH         LGT SNOW  33  31  92 SW9       29.43S FOG     WCI  25
ELY            LGT SNOW  32  30  93 S3        29.40F
HIBBING        CLOUDY    31  31 100 SW3       29.40S
EVELETH        LGT SNOW  32  32 100 SW6       29.41F VSB 3/4 WCI  26
DULUTH HARBOR  MIX PCPN  36  32  87 S10       29.47F
TWO HARBORS    LGT SNOW  34  28  80 SW3       29.43F VSB 1
SILVER BAY     CLOUDY    32  30  93 CALM      29.43F FOG
GRAND MARAIS     N/A     35  31  85 S13       29.49F WCI  26
G MARAIS ARPRT SNOW      28  25  86 S7        29.45S VSB 1/4 WCI  21
$$
MNZ029>031-032-039>041-046>048-054>057-064-071500-
   West Central Minnesota

CITY           SKY/WX    TMP DP  RH WIND       PRES   REMARKS
FERGUS FALLS   CLEAR     34  27  75 W17G26    29.65R WCI  23
WHEATON        PTCLDY    37  27  65 W22G30    29.69S
MORRIS         CLEAR     36  27  69 W23       29.65S
ALEXANDRIA     FLURRIES  34  25  69 W24G33    29.61R WCI  21
ELBOW LAKE     FAIR      33  27  79 NW21G32   29.64S HAZE    WCI  21
WADENA         CLOUDY    34  28  80 W16G24    29.54S WCI  23
GLENWOOD       CLEAR     34  27  75 W23G32    29.63R WCI  22
APPLETON       PTCLDY    36  27  69 W21       29.70R
BENSON         CLEAR     34  25  69 NW15      29.68S WCI  24
ORTONVILLE     CLEAR     36  25  64 W17G24    29.70F
MADISON        PTCLDY    36  27  69 W21       29.73S
WILLMAR        FAIR      36  28  75 W20G26    29.68S
$$
MNZ033>034-036-042>043-049>051-058-059-071500-
   Central Minnesota

CITY           SKY/WX    TMP DP  RH WIND       PRES   REMARKS
ST CLOUD       CLOUDY    37  27  67 W23G31    29.58S
SAUK CENTRE    CLOUDY    35  27  73 W21G30    29.60S WCI  23
PAYNESVILLE    PTCLDY    35  27  70 W21G31    29.64R WCI  24
AITKIN         FLURRIES  37  30  75 SW10      29.47S
PINE RIVER     FLURRIES  34  30  86 W8G18     29.54R WCI  27
BRAINERD       LGT SNOW  33  31  92 W13       29.52R FOG     WCI  24
STAPLES        LGT SNOW  32  30  93 W15G23    29.54S WCI  22
LONG PRAIRIE   CLOUDY    34  27  75 W18G29    29.58S WCI  23
LITTLE FALLS   CLOUDY    34  28  80 W13G20    29.57S WCI  25
LITCHFIELD     CLEAR     36  28  75 W17G28    29.65S
BUFFALO        CLOUDY    37  27  69 W13G21    29.63F
MAPLE LAKE     CLOUDY    38  29  71 W17G24    29.62S
$$
MNZ037-044-045-052-053-071500-
   East Central Minnesota

CITY           SKY/WX    TMP DP  RH WIND       PRES   REMARKS
PRINCETON      CLOUDY    37  30  75 W15G23    29.58S
MORA           CLOUDY    36  30  80 W13G22    29.55R
CAMBRIDGE      CLOUDY    39  28  65 W10G17    29.55S
RUSH CITY      CLOUDY    37  31  80 W20       29.55R
MOOSE LAKE     LGT RAIN  34  32  93 W10       29.46R WCI  26
HINCKLEY       CLOUDY    36  32  87 W12       29.51S
CLOQUET        LGT SNOW  34  32  93 SW7       29.44F WCI  28
MCGREGOR       CLOUDY    34  32  93 W9        29.47S WCI  26
$$
MNZ071>073-080-081-089-090-097-098-071500-
   Southwest Minnesota

CITY           SKY/WX    TMP DP  RH WIND       PRES   REMARKS
MONTEVIDEO     CLEAR     36  27  69 NW17G24   29.72S
GRANITE FALLS  PTCLDY    37  28  72 W24G31    29.73S
CANBY          CLOUDY    38  29  70 NW22      29.76S
MARSHALL       PTCLDY    36  26  67 W24G31    29.75R
REDWOOD FALLS  CLEAR     35  25  66 W23G32    29.71S WCI  23
OLIVIA         CLEAR     34  28  80 W21       29.69R WCI  22
PIPESTONE      CLOUDY    37  21  52 NW17G28   29.79S
WINDOM         CLEAR     32  27  80 W22       29.75S WCI  19
WORTHINGTON    MOCLDY    34  25  69 W22       29.80S WCI  22
JACKSON        CLEAR     34  23  64 W24       29.77R WCI  21
TRACY          PTCLDY    36  27  70 W14G28    29.76R
SLAYTON        CLOUDY    33  28  81 W26       29.78S WCI  20
$$
MNZ065>067-074>077-082>085-091>093-071500-
   South Central Minnesota

CITY           SKY/WX    TMP DP  RH WIND       PRES   REMARKS
MANKATO        CLEAR     36  25  64 W21       29.71S
NEW ULM        CLEAR     32  25  74 W18       29.71S WCI  20
ST JAMES       CLEAR     34  27  75 W21G26    29.74S WCI  22
FAIRMONT       CLEAR     34  23  64 W20       29.74S WCI  22
GLENCOE        PTCLDY    36  28  74 W17G23    29.65S
FARIBAULT        N/A     36  27  69 W15G26    29.68S
OWATONNA       MOCLDY    34  27  75 W16       29.69S WCI  23
WASECA         PTCLDY    32  27  80 W15       29.72S WCI  22
ALBERT LEA     PTCLDY    34  27  75 W14       29.71S WCI  24
$$
MNZ078>079-086>088-094>096-071500-
   Southeast Minnesota

CITY           SKY/WX    TMP DP  RH WIND       PRES   REMARKS
ROCHESTER      MOCLDY    32  26  78 W16       29.68S WCI  21
RED WING       MOCLDY    36  27  69 W10       29.63F
STANTON        MOCLDY    37  27  67 W13       29.65S
DODGE CENTER   PTCLDY    30  25  80 W13       29.67S WCI  20
WINONA         CLEAR     34  28  80 W5        29.69S WCI  30
AUSTIN         CLEAR     34  27  75 W10       29.71S WCI  26
PRESTON        CLEAR     31  25  77 W14       29.70S WCI  21
$$
ABBREVIATIONS USED IN REMARKS
   TC - TEMPERATURES IN CELSIUS
  WCI - WIND CHILL INDEX
   HX - HEAT INDEX
  VSB - VISIBILITY
$$



USA.gov is the U.S. government's official web portal to all federal, state and local government web resources and services.